Content
SEND FEEDBACK

Daily
Averages
Monthly
Summary
Switzerland

GENEVA, SWITZERLAND


Home > Europe > Switzerland
Elevation: 1364 feet     Latitude: 46 15N     Longitude: 006 08E

WEATHER
 
SELECT A DAY
Number of Records: 311,664;   Date Range: 7/1/96 - 9/29/14
 
SHARE

PRINT THIS DATA

[ ← Previous Day ]
WEATHER ALMANAC - MAY 1, 2013
[ Next Day → ]
[ °C ]   °F
Weather ElementAverageHighLow
Temperature57.7 °F66.2 °F (4:50 pm)51.8 °F (5:20 am)
Dewpoint50.6 °F55.4 °F (3:50 pm)48 °F (1:00 am)
Humidity76.2 %94 % (5:20 am)52 % (2:00 pm)
Barometer30.04 in30.07 in (1:00 am)29.99 in (1:00 pm)
Wind Speed5.4 mph18.4 mph (3:00 pm)
Weather ElementAverage
Visibility5.2 mi
Wind DirectionESE (97.8 °)

Weather ElementTotal
Precipitation---
Heating Degree Days6 (Base 65)
Growing Degree Days9 (Base 50)
Averaged from 67 records on May 1, 2013
WEATHER CONDITIONS BREAKOUT
WIND DIRECTION BREAKOUT
WEATHER BY HOUR - MAY 1, 2013
[ °C ]   °F
Local TimeTemperatureDewpointHumidityBarometerVisibilityWind DirectionWind SpeedGust SpeedPrecipitationEventsConditions
12:20 AM53.6 °F48.2 °F82 %30.06 in4.3 miENE (60°)8.1 mphMostly Cloudy
12:50 AM53.6 °F48.2 °F82 %30.06 in4.3 miENE (60°)6.9 mphMostly Cloudy
1:00 AM53.0 °F48.0 °F77 %30.07 inNE (50°)8.1 mph
1:20 AM53.6 °F48.2 °F82 %30.06 in4.3 miNE (50°)5.8 mphMostly Cloudy
1:50 AM53.6 °F50.0 °F88 %30.06 in4.3 miNNE (20°)4.6 mphMostly Cloudy
2:00 AM53.0 °F48.0 °F79 %30.06 in4.0 miNNE (30°)4.6 mphMist
2:20 AM53.6 °F50.0 °F88 %30.04 in3.7 miNE (40°)5.8 mphOvercast
2:50 AM53.6 °F50.0 °F88 %30.06 in3.7 miVariable3.5 mphOvercast
3:00 AM53.0 °F48.0 °F79 %30.06 inNNE (30°)4.6 mph
3:50 AM53.6 °F50.0 °F88 %30.06 in3.7 miVariable3.5 mphOvercast
4:00 AM53.0 °F48.0 °F79 %30.06 inNNE (20°)3.5 mph
4:20 AM53.6 °F50.0 °F88 %30.06 in3.7 miVariable1.2 mphOvercast
4:50 AM53.6 °F50.0 °F88 %30.04 in3.1 miCalmOvercast
5:20 AM51.8 °F50.0 °F94 %30.06 in3.1 miCalmOvercast
5:50 AM51.8 °F50.0 °F94 %30.06 in3.1 miCalmMostly Cloudy
6:00 AM53.0 °F49.0 °F82 %30.07 inWest (280°)1.2 mph
6:20 AM51.8 °F50.0 °F94 %30.06 in3.1 miVariable2.3 mphMostly Cloudy
6:50 AM51.8 °F50.0 °F94 %30.06 in2.8 miVariable2.3 mphRainLight Rain Showers
7:00 AM53.0 °F50.0 °F85 %30.06 inNE (50°)4.6 mph
7:20 AM51.8 °F50.0 °F94 %30.04 in2.8 miENE (70°)5.8 mphOvercast
7:50 AM53.6 °F50.0 °F88 %30.06 in3.1 miVariable2.3 mphMostly Cloudy
8:00 AM53.0 °F49.0 °F82 %30.07 in3.0 miNNE (20°)4.6 mphMist
8:20 AM53.6 °F50.0 °F88 %30.06 in3.1 miVariable2.3 mphMostly Cloudy
8:50 AM55.4 °F50.0 °F82 %30.06 in3.1 miNNE (20°)4.6 mphMostly Cloudy
9:00 AM55.0 °F49.0 °F76 %30.05 inNorth (10°)5.8 mph
9:20 AM55.4 °F50.0 °F82 %30.04 in3.1 miNNE (20°)6.9 mphMostly Cloudy
9:50 AM55.4 °F50.0 °F82 %30.04 in3.7 miNE (40°)8.1 mphOvercast
10:00 AM55.0 °F49.0 °F74 %30.04 inNE (40°)9.2 mph
10:20 AM55.4 °F50.0 °F82 %30.04 in3.7 miENE (60°)9.2 mphMostly Cloudy
10:50 AM57.2 °F50.0 °F77 %30.01 in3.7 miNE (50°)10.4 mphMostly Cloudy
11:20 AM59.0 °F50.0 °F72 %30.01 in5.0 miNE (40°)9.2 mphMostly Cloudy
11:50 AM59.0 °F50.0 °F72 %30.01 in5.0 miENE (60°)9.2 mphScattered Clouds
12:00 PM60.0 °F50.0 °F60 %30.00 inNE (50°)8.1 mph
12:20 PM60.8 °F51.8 °F72 %30.01 in5.0 miNE (40°)6.9 mphScattered Clouds
12:50 PM62.6 °F51.8 °F68 %30.01 in5.0 miVariable2.3 mphMostly Cloudy
1:00 PM62.0 °F50.0 °F56 %29.99 inSSW (210°)5.8 mph
1:20 PM62.6 °F51.8 °F68 %30.01 in5.0 miSW (220°)6.9 mphMostly Cloudy
1:32 PM62.6 °F50.0 °F63 %30.04 in5.0 miSW (220°)9.2 mphMostly Cloudy
1:50 PM62.6 °F50.0 °F63 %30.04 in5.0 miSSW (210°)8.1 mphMostly Cloudy
2:00 PM63.0 °F50.0 °F52 %30.00 in5.0 miSW (230°)8.1 mphHaze
2:20 PM64.4 °F51.8 °F64 %30.01 in5.6 miSSW (210°)13.8 mphMostly Cloudy
2:50 PM60.8 °F50.0 °F68 %30.04 in6.2 miSW (220°)16.1 mphRainRain Showers
3:00 PM59.0 °F50.0 °F63 %30.03 inSW (220°)18.4 mph
3:20 PM59.0 °F51.8 °F77 %30.04 in6.2 miSSE (160°)9.2 mphRainRain Showers
3:50 PM64.4 °F55.4 °F73 %30.01 in6.2 miSSW (210°)4.6 mphScattered Clouds
4:00 PM63.0 °F52.0 °F58 %30.00 inSW (220°)5.8 mph
4:20 PM64.4 °F53.6 °F68 %30.01 in6.2 miSW (230°)4.6 mphMostly Cloudy
4:50 PM66.2 °F51.8 °F60 %30.01 in6.2 miVariable2.3 mphScattered Clouds
5:20 PM66.2 °F50.0 °F56 %30.01 in6.2 miSW (230°)5.8 mphScattered Clouds
5:50 PM64.4 °F51.8 °F64 %30.01 in6.2 miSW (230°)9.2 mphScattered Clouds
6:00 PM64.0 °F51.0 °F52 %29.99 inWest (270°)3.5 mph
6:20 PM66.2 °F51.8 °F60 %30.01 in6.2 miVariable2.3 mphScattered Clouds
6:50 PM64.4 °F51.8 °F64 %30.01 in6.2 miVariable3.5 mphScattered Clouds
7:00 PM63.0 °F52.0 °F57 %30.01 inSW (230°)12.7 mph
7:20 PM62.6 °F51.8 °F68 %30.01 in6.2 miSouth (190°)5.8 mphScattered Clouds
7:50 PM62.6 °F53.6 °F72 %30.04 in6.2 miSW (230°)4.6 mphScattered Clouds
8:00 PM61.0 °F51.0 °F62 %30.03 in25.0 miSSW (210°)8.1 mphScattered Clouds
8:20 PM60.8 °F51.8 °F72 %30.04 in6.2 miSW (230°)4.6 mphScattered Clouds
8:50 PM59.0 °F51.8 °F77 %30.06 in6.2 miVariable2.3 mphMostly Cloudy
9:00 PM59.0 °F51.0 °F69 %30.04 inNNW (330°)2.3 mph
9:20 PM57.2 °F53.6 °F88 %30.06 in6.2 miCalmScattered Clouds
9:50 PM55.4 °F51.8 °F88 %30.06 in6.2 miVariable1.2 mphScattered Clouds
10:00 PM56.0 °F51.0 °F80 %30.07 inWest (280°)2.3 mph
10:20 PM57.2 °F53.6 °F88 %30.06 in6.2 miVariable1.2 mphScattered Clouds
10:50 PM55.4 °F53.6 °F94 %30.06 in6.2 miCalmScattered Clouds
11:20 PM55.4 °F53.6 °F94 %30.06 in6.2 miNorth (350°)1.2 mphScattered Clouds
11:50 PM55.4 °F51.8 °F88 %30.06 in6.2 miCalmScattered Clouds
Hourly data recorded from LSGG, located miles away from Geneva, Switzerland







STORIES FROM OUR PARTNERS